Powrót do katalogu

FENGYUN 1C DEB

AktywnySSO
NORAD 30105·DEBRIS·🇨🇳 China

Wystrzelony May 10, 1999 z Taiyuan Satellite Launch Center

Loading…

Następne Przeloty (najbliższe 24 godziny)

TLE

ŚwieżeSource: Space-Track

Epoka: Sep 14, 2026, 09:54 UTC

1 30105U 99025RJ  26257.41279538  .00000660  00000-0  26281-3 0  9999
2 30105  98.6196 241.8973 0197748 354.9098   5.0067 14.21864326 16785

Śledź FENGYUN 1C DEB w czasie rzeczywistym z AllMySat

Download on the App Store